Skip Page Navigation
NASA JPL Caltech
NASA Logo - Jet Propulsion Laboratory + View the NASA Portal
+ Center for Near-Earth Object Studies
JPL Home Earth Solar System Stars & Galaxies Technology
JPL Solar System Dynamics
BODIES ORBITS EPHEMERIDES TOOLS PHYSICAL DATA DISCOVERY FAQ SITE MAP
IMPORTANT: The SSD Announcement email list is now available. Major changes are coming in the near future, including possible hostname and/or URL changes. To be notified of such changes, subscribe to this email list.

Please visit this page for more details.


JPL Small-Body Database Browser
Search: [ help ]  
245835 (2006 KP15)
Classification: Main-belt Asteroid          SPK-ID: 2245835
Ephemeris | Orbit Diagram | Orbital Elements | Mission Design | Physical Parameters | Discovery Circumstances | Close-Approach Data ]

[ show orbit diagram ]
Orbital Elements at Epoch 2459000.5 (2020-May-31.0) TDB
Reference: JPL 10 (heliocentric ecliptic J2000)
 Element Value Uncertainty (1-sigma)   Units 
e .04677240355646756 6.5655e-08  
a 2.685010193104471 2.7035e-08 au
q 2.55942581279936 1.8165e-07 au
i 6.154048651897823 7.6824e-06 deg
node 76.66437012419446 7.2014e-05 deg
peri 260.3823990669124 0.0001153 deg
M 336.0225296905575 9.0416e-05 deg
tp 2459107.533122683066
(2020-Sep-15.03312268)
0.00040358 TDB
period 1607.005395841506
4.40
2.4271e-05
6.645e-08
d
yr
n .2240191606895548 3.3835e-09 deg/d
Q 2.810594573409583 2.83e-08 au
  Orbit Determination Parameters
   # obs. used (total)      171  
   data-arc span      5703 days (15.61 yr)  
   first obs. used      2003-11-21  
   last obs. used      2019-07-03  
   planetary ephem.      DE431  
   SB-pert. ephem.      SB431-N16  
   condition code      0  
   norm. resid. RMS      .59391  
   source      ORB  
   producer      Otto Matic  
   solution date      2020-Feb-25 09:46:48  

Additional Information
 Earth MOID = 1.55829 au 
 Jupiter MOID = 2.36015 au 
 T_jup = 3.365 
[ show covariance matrix ]

Ephemeris | Orbit Diagram | Orbital Elements | Mission Design | Physical Parameters | Discovery Circumstances | Close-Approach Data ]

Physical Parameter Table
Parameter Symbol Value Units Sigma Reference Notes
absolute magnitude H 16.6   n/a MPO437145  
diameter diameter 2.762 km 0.732 urn:nasa:pds:neowise_diameters_albedos::2.0[mainbelt] (http://adsabs.harvard.edu/abs/2011ApJ...741...68M)  
geometric albedo albedo 0.053   0.027 urn:nasa:pds:neowise_diameters_albedos::2.0[mainbelt] (http://adsabs.harvard.edu/abs/2011ApJ...741...68M)  

245835 (2006 KP15)          Discovered 2006-May-20 by Spacewatch at Kitt Peak
Reference: 20100726/Numbers.arcLast Updated: 2010-07-28

[ show close-approach data ]
Ephemeris | Orbit Diagram | Orbital Elements | Mission Design | Physical Parameters | Discovery Circumstances | Close-Approach Data ]
ABOUT SSD CREDITS/AWARDS PRIVACY/COPYRIGHT GLOSSARY LINKS
FirstGov 2020-Mar-28 16:07 UT
(server date/time)  
NASA Home Page
Site Manager:   Ryan S. Park
Webmaster  Alan B. Chamberlin